Location: DaVinci Observatory
(43.1080°N, 78.6453°W)
Time: 19:06:27
(UTC-04:00)

Tiangong 2 - Visible Passes

Search period start: 20 June 2019 00:00
Search period end: 30 June 2019 00:00
Orbit: 376 x 389 km, 42.8° (Epoch: 20 June)

Date Brightness Start Highest point End Pass type
(mag) Time Alt. Az. Time Alt. Az. Time Alt. Az.
25 Jun 2.8 04:48:05 10° SSW 04:50:35 22° SSE 04:53:07 10° E visible
26 Jun 3.3 03:50:19 13° SSE 03:50:35 13° SSE 03:52:13 10° ESE visible
27 Jun 2.0 04:24:50 18° SSW 04:26:41 33° SSE 04:29:35 10° E visible
28 Jun 2.9 03:27:09 20° SE 03:27:09 20° SE 03:29:05 10° E visible
28 Jun 1.1 04:59:51 10° WSW 05:02:59 67° SSE 05:06:08 10° E visible
29 Jun 1.4 04:01:36 30° SW 04:02:48 48° SSE 04:05:52 10° E visible
